ARIANE 2 R/B

基本信息
目录编号:
19920
目录名称:
ARIANE 2 R/B
国际标识:
1989-027B
轨道中心:
EARTH
物体状态:
在轨
发射日期:
1989-04-02 UTC
国别:
法国 (FR)
轨道信息
数据来源: 国际轨道数据
星历时间: 2026-07-14T02:52:12+0800
半长轴: 14156.747km
偏心率: 0.5244673
轨道倾角: 4.029°
近地点辐角: 181.027°
升交点赤经: 337.701°
平近点角: 177.406°
近地点: 353.859km
远地点: 15203.361km
周期: 279.386分钟
每日圈数: 5.154156
详细信息
发射场:
FRGUI
轨道高度:
LEO
数据来源:
AOE Integration Group
参考系:
TEME
时间系统:
UTC
历元类型:
SGP4
2D轨道图
3D轨道图
轨道高度分析图
轨道倾角分析图
轨道综合分析图
查看轨道综合分析图